Showing default

DTUSAT 2, 40030

Orbit data source: Space-Track

DTUSAT 2, 40030 is a payload satellite owned by DTU (DK) in SSO that was launched on Thu, 19 Jun 2014 UTC via a DNEPR launch vehicle from the Orenburg, Russia (OREN). Payload-class satellites include a variety of spacecraft equipped with specific instruments for various scientific and technological missions. These include communications satellites like Starlink; space stations such as the ISS; scientific satellites like the Hubble; Earth observation satellites from companies like Planet Labs, Umbra, and HawkEye 360; GPS; miniature CubeSats for education and research; and military/defense satellites.

Loading next visibility...
Identifier
40030, 2014-033W
Orbit
SSO
Country
Flag of DKDK / DEN
Related business
Manufacturer
DTU
Mission
Operational Amateur Communications
Bus & Motor
CUBESAT 1U, Unknown motor
Mass
1.333 kg wet, 1.333 kg dry
Launch date (UTC)
2014-06-19 (11 years ago)
Launch vehicle
DNEPR
Launch site
Orenburg, Russia (OREN)
Object type
Payload
Rocket body
Debris
Shape & HBR
Box, 0.1 m
Radar Cross Section
0.015 m², Small (<0.1 m²)

Expand to show TLE details & history
Last TLE update: 16 hours ago

TLE from 16 hours ago
0 DTUSAT 2
1 40030U 14033W   25287.93133771  .00009812  00000-0  60212-3 0  9990
2 40030  98.0707 266.1687 0008725   6.1522 353.9811 15.10313346615609
Epoch: 2025-10-14T22:21Z
TLE epoch observation values (Epoch: 2025-10-14T22:21:07.578Z)
Latitude
-0.00005°
Longitude
-92.82555°
Altitude
532.301 km
Speed
7.6 km/s
True Right ascension
17h 44m 40s
True Declination
0° 00' 00"
Sunlit
Object was in daylight at epoch
Visualization orbit readout
Latitude
Unknown
Longitude
Unknown
Altitude
Unknown
Speed
Unknown
Apparent Right ascension
Unknown
Apparent Declination
Unknown
Sunlit
N/A
Visualization observer readout
Local Sidereal Time
09:02:42
Azimuth
Unknown
Elevation
Unknown
Doppler factor
Unknown
Orbital elements
Apogee altitude
538.281 km
Perigee altitude
526.223 km
Semi-major axis
6,910.389 km
Eccentricity
0.00087
Inclination
98.0707°
RAAN
266.1687°
Arg. of periapsis
6.1522°
True anomaly
353.9706°
Mean anomaly
353.9811°
Eccentric anomaly
353.97585°
Mean motion
3.77824 °/min
Orbital period
95.28 mins
BSTAR
0.00060212
Loading maneuver chart data...
Computing Atmospheric mass density...
Loading historical data...
Loading historical data...
Loading historical data...
Loading historical data...
Loading historical data...
Loading historical data...
Loading historical data...

Documentation

Showing up to 5 results
|